Weather History for KPCZ - January, 2013

Change the Weather History Date:

Monday, January 21, 2013

  Actual Average Record
Temperature  
Mean Temperature 0 °F -  
Max Temperature 6 °F 26 °F 44 °F (1964)
Min Temperature -5 °F 9 °F -24 °F (1963)
Degree Days  
Heating Degree Days 64    
Moisture  
Dew Point -13 °F    
Average Humidity 55    
Maximum Humidity 72    
Minimum Humidity 43    
Precipitation  
Precipitation 0.00 in - - ()
Sea Level Pressure  
Sea Level Pressure 30.16 in    
Wind  
Wind Speed 10 mph (WNW)    
Max Wind Speed 21 mph    
Max Gust Speed 30 mph    
Visibility 10 miles    
Events      
Averages and records for this station are not official NWS values.
T = Trace of Precipitation, MM = Missing Value Source: NWS Daily Summary

Daily Weather History Graph

Daily Weather History Graph

Search for Another Location

Airport or City:

Trip Planner

Search our weather history database for the weather conditions in past years. The results will help you decide how hot, cold, wet, or windy it might be!

Date:

Astronomy

Jan. 21, 2013 Rise Set
Actual Time 7:24 AM CST 4:50 PM CST
Civil Twilight 6:52 AM CST 5:22 PM CST
Nautical Twilight 6:17 AM CST 5:58 PM CST
Astronomical Twilight 5:42 AM CST 6:32 PM CST
Moon 12:29 PM CST (1/21) 2:53 AM CST (1/21)
Length of Visible Light 10h 30m
Length of Day
9h 26m
Waxing Gibbous, 75% of the Moon is Illuminated
Jan 21
Waxing Gibbous
Jan 26
Full
Feb 3
Last Quarter
Feb 10
New
Feb 17
First Quarter

Hourly Weather History & Observations

Time (CST) Temp. Windchill Dew Point Humidity Pressure Visibility Wind Dir Wind Speed Gust Speed Precip Events Conditions
12:15 AM 6.8 °F -5.9 °F -4.0 °F 61% 30.14 in 10.0 mi WNW 8.1 mph - N/A   Scattered Clouds
12:35 AM 6.8 °F -5.9 °F -4.0 °F 61% 30.13 in 10.0 mi WNW 8.1 mph - N/A   Clear
12:55 AM 6.8 °F -7.8 °F -4.0 °F 61% 30.13 in 10.0 mi WNW 10.4 mph - N/A   Clear
1:15 AM 6.8 °F -3.5 °F -4.0 °F 61% 30.13 in 10.0 mi NW 5.8 mph - N/A   Clear
1:35 AM 5.0 °F -6.9 °F -4.0 °F 66% 30.13 in 10.0 mi NW 6.9 mph - N/A   Clear
1:55 AM 5.0 °F -8.1 °F -4.0 °F 66% 30.13 in 10.0 mi WNW 8.1 mph - N/A   Clear
2:15 AM 5.0 °F -8.1 °F -4.0 °F 66% 30.13 in 10.0 mi WNW 8.1 mph - N/A   Clear
2:35 AM 5.0 °F -5.6 °F -5.8 °F 61% 30.13 in 10.0 mi West 5.8 mph - N/A   Clear
2:55 AM 5.0 °F -5.6 °F -5.8 °F 61% 30.12 in 10.0 mi West 5.8 mph - N/A   Clear
3:15 AM 5.0 °F -6.9 °F -5.8 °F 61% 30.11 in 10.0 mi West 6.9 mph - N/A   Clear
3:35 AM 3.2 °F -6.2 °F -5.8 °F 66% 30.10 in 10.0 mi West 4.6 mph - N/A   Clear
3:55 AM 3.2 °F -7.8 °F -5.8 °F 66% 30.10 in 10.0 mi West 5.8 mph - N/A   Clear
4:15 AM 3.2 °F -6.2 °F -5.8 °F 66% 30.10 in 10.0 mi West 4.6 mph - N/A   Clear
4:35 AM 3.2 °F -7.8 °F -5.8 °F 66% 30.09 in 10.0 mi West 5.8 mph - N/A   Mostly Cloudy
4:55 AM 3.2 °F -7.8 °F -4.0 °F 72% 30.09 in 7.0 mi West 5.8 mph - N/A   Overcast
5:15 AM 3.2 °F -13.9 °F -5.8 °F 66% 30.09 in 10.0 mi WNW 12.7 mph - N/A   Scattered Clouds
5:55 AM 3.2 °F -11.3 °F -7.6 °F 61% 30.10 in 10.0 mi WNW 9.2 mph - N/A   Clear
6:15 AM 3.2 °F -11.3 °F -7.6 °F 61% 30.10 in 7.0 mi WNW 9.2 mph 16.1 mph N/A   Mostly Cloudy
6:35 AM 3.2 °F -12.2 °F -7.6 °F 61% 30.10 in 10.0 mi WNW 10.4 mph 24.2 mph N/A   Scattered Clouds
6:55 AM 1.4 °F -13.5 °F -7.6 °F 66% 30.10 in 7.0 mi WNW 9.2 mph - N/A   Scattered Clouds
7:15 AM 1.4 °F -16.9 °F -9.4 °F 61% 30.11 in 10.0 mi West 13.8 mph 23.0 mph N/A   Scattered Clouds
7:35 AM 1.4 °F -18.2 °F -11.2 °F 56% 30.12 in 10.0 mi WNW 16.1 mph 26.5 mph N/A   Clear
7:55 AM 1.4 °F -12.5 °F -9.4 °F 61% 30.13 in 5.0 mi WNW 8.1 mph 16.1 mph N/A   Haze
8:15 AM -0.4 °F -17.6 °F -9.4 °F 66% 30.13 in 7.0 mi WNW 11.5 mph 17.3 mph N/A   Mostly Cloudy
8:35 AM -0.4 °F -17.6 °F -14.8 °F 51% 30.14 in 10.0 mi WNW 11.5 mph 23.0 mph N/A   Scattered Clouds
8:55 AM -0.4 °F -22.3 °F -14.8 °F 51% 30.15 in 10.0 mi NW 19.6 mph 26.5 mph N/A   Clear
9:15 AM -0.4 °F -20.5 °F -16.6 °F 46% 30.16 in 10.0 mi West 16.1 mph 29.9 mph N/A   Clear
9:35 AM -0.4 °F -20.5 °F -16.6 °F 46% 30.16 in 10.0 mi WNW 16.1 mph 25.3 mph N/A   Clear
9:55 AM -0.4 °F -20.5 °F -16.6 °F 46% 30.17 in 10.0 mi West 16.1 mph 25.3 mph N/A   Clear
10:15 AM -0.4 °F -18.4 °F -14.8 °F 51% 30.17 in 10.0 mi WNW 12.7 mph 21.9 mph N/A   Clear
10:35 AM -0.4 °F -18.4 °F -14.8 °F 51% 30.17 in 10.0 mi WNW 12.7 mph 18.4 mph N/A   Mostly Cloudy
10:55 AM -0.4 °F -21.2 °F -14.8 °F 51% 30.17 in 10.0 mi WNW 17.3 mph 24.2 mph N/A   Mostly Cloudy
11:15 AM -0.4 °F -21.2 °F -16.6 °F 46% 30.17 in 10.0 mi WNW 17.3 mph 26.5 mph N/A   Scattered Clouds
11:35 AM 1.4 °F -17.6 °F -13.0 °F 51% 30.16 in 5.0 mi WNW 15.0 mph 19.6 mph N/A   Haze
11:55 AM 1.4 °F -19.4 °F -14.8 °F 47% 30.16 in 10.0 mi West 18.4 mph 25.3 mph N/A   Overcast
12:15 PM 1.4 °F -18.2 °F -14.8 °F 47% 30.15 in 10.0 mi WNW 16.1 mph 24.2 mph N/A   Mostly Cloudy
12:35 PM 1.4 °F -18.2 °F -14.8 °F 47% 30.15 in 10.0 mi WNW 16.1 mph 29.9 mph N/A   Scattered Clouds
12:55 PM 1.4 °F -16.1 °F -14.8 °F 47% 30.14 in 10.0 mi WNW 12.7 mph 23.0 mph N/A   Mostly Cloudy
1:15 PM 1.4 °F -15.3 °F -14.8 °F 47% 30.14 in 10.0 mi WNW 11.5 mph 23.0 mph N/A   Scattered Clouds
1:35 PM -0.4 °F -21.7 °F -16.6 °F 46% 30.13 in 10.0 mi WNW 18.4 mph 24.2 mph N/A   Scattered Clouds
1:55 PM 1.4 °F -20.5 °F -16.6 °F 43% 30.14 in 10.0 mi West 20.7 mph 24.2 mph N/A   Clear
2:35 PM -0.4 °F -20.5 °F -16.6 °F 46% 30.14 in 10.0 mi West 16.1 mph 24.2 mph N/A   Clear
2:55 PM -0.4 °F -19.2 °F -16.6 °F 46% 30.15 in 10.0 mi WNW 13.8 mph 24.2 mph N/A   Clear
3:15 PM -0.4 °F -17.6 °F -16.6 °F 46% 30.16 in 10.0 mi WNW 11.5 mph 19.6 mph N/A   Clear
3:35 PM -0.4 °F -19.2 °F -16.6 °F 46% 30.16 in 10.0 mi WNW 13.8 mph 25.3 mph N/A   Clear
3:55 PM -0.4 °F -21.7 °F -16.6 °F 46% 30.16 in 10.0 mi West 18.4 mph 23.0 mph N/A   Scattered Clouds
4:15 PM -0.4 °F -19.2 °F -16.6 °F 46% 30.16 in 10.0 mi WNW 13.8 mph 19.6 mph N/A   Clear
4:55 PM -2.2 °F -20.7 °F -16.6 °F 50% 30.17 in 10.0 mi NW 12.7 mph 18.4 mph N/A   Clear
5:15 PM -2.2 °F -20.7 °F -16.6 °F 50% 30.18 in 10.0 mi WNW 12.7 mph - N/A   Clear
5:35 PM -2.2 °F -18.9 °F -16.6 °F 50% 30.18 in 10.0 mi WNW 10.4 mph 17.3 mph N/A   Clear
5:55 PM -4.0 °F -21.2 °F -16.6 °F 55% 30.19 in 10.0 mi NW 10.4 mph - N/A   Clear
6:15 PM -4.0 °F -16.3 °F -16.6 °F 55% 30.20 in 10.0 mi WNW 5.8 mph - N/A   Clear
6:35 PM -4.0 °F -21.2 °F -16.6 °F 55% 30.20 in 10.0 mi WNW 10.4 mph 16.1 mph N/A   Clear
6:55 PM -4.0 °F -21.2 °F -16.6 °F 55% 30.21 in 10.0 mi WNW 10.4 mph 18.4 mph N/A   Clear
7:15 PM -4.0 °F -20.2 °F -16.6 °F 55% 30.21 in 10.0 mi WNW 9.2 mph - N/A   Clear
7:35 PM -4.0 °F -19.0 °F -16.6 °F 55% 30.21 in 10.0 mi WNW 8.1 mph 16.1 mph N/A   Clear
7:55 PM -4.0 °F -20.2 °F -16.6 °F 55% 30.21 in 10.0 mi WNW 9.2 mph - N/A   Clear
8:15 PM -4.0 °F -22.1 °F -16.6 °F 55% 30.22 in 10.0 mi WNW 11.5 mph 16.1 mph N/A   Clear
8:35 PM -4.0 °F -20.2 °F -18.4 °F 50% 30.22 in 10.0 mi WNW 9.2 mph 17.3 mph N/A   Clear
8:55 PM -4.0 °F -21.2 °F -18.4 °F 50% 30.23 in 10.0 mi NW 10.4 mph - N/A   Clear
9:15 PM -4.0 °F -22.1 °F -18.4 °F 50% 30.23 in 10.0 mi WNW 11.5 mph 18.4 mph N/A   Clear
9:35 PM -4.0 °F -20.2 °F -16.6 °F 55% 30.23 in 10.0 mi WNW 9.2 mph - N/A   Clear
9:55 PM -4.0 °F -20.2 °F -16.6 °F 55% 30.24 in 10.0 mi WNW 9.2 mph - N/A   Clear
10:15 PM -5.8 °F -21.2 °F -16.6 °F 60% 30.24 in 10.0 mi WNW 8.1 mph - N/A   Clear
10:35 PM -5.8 °F -19.9 °F -16.6 °F 60% 30.25 in 10.0 mi WNW 6.9 mph - N/A   Clear
10:55 PM -5.8 °F -19.9 °F -16.6 °F 60% 30.25 in 10.0 mi WNW 6.9 mph - N/A   Clear
11:15 PM -5.8 °F -18.4 °F -16.6 °F 60% 30.25 in 10.0 mi WNW 5.8 mph - N/A   Clear
11:55 PM -5.8 °F -22.4 °F -18.4 °F 55% 30.24 in 10.0 mi WNW 9.2 mph - N/A   Clear